Capt. James Anderson — WDC3584 — position and weather

sailwx.info

Track history (hours):
 
Tides and Currents Weather Stations Pressure Air Temp Water Temp Dewpoint Dewpoint Depression Visibility Wind Speed Wind Dir Waves Ship Positions

Capt. James Anderson

Owner: AEP River Operations LLC, Chesterfield, MO. More information available from US FCC via Universal Licensing System and Coast Guard Vessel Documentation Center.

Last reported at 2013-Dec-24 11:03 UTC. Time now 2014-Oct-30 22:59 UTC.
Position N 39°02' W 084°20'.
Warning: this ship's position is months out of date.

Length 46 m; draft 3.5 m.

Type: Towing. MMSI: 367010580.

Date/timePositionNaut miles runAvg speedWind from/ knotsBaromVisibWave heightAir tempDewpointWater temp
2013-Dec-24 11:03N 39°02' W 084°20'2 4.3
2013-Dec-24 10:33N 39°02' W 084°23'3 3.1
2013-Dec-24 09:33N 39°04' W 084°26'4 3.5
2013-Dec-24 08:32N 39°07' W 084°28'3 3.4
2013-Dec-24 07:32N 39°06' W 084°33'4 3.8
2013-Dec-24 06:33N 39°04' W 084°37'4 4.3
2013-Dec-24 05:32N 39°07' W 084°42'4 3.7
2013-Dec-24 04:33N 39°08' W 084°46'8 3.6
2013-Dec-24 02:23N 39°03' W 084°53'4 3.2
2013-Dec-24 01:13N 38°60' W 084°51'3 3.8
2013-Dec-24 00:31N 38°57' W 084°50'3 3.2
2013-Dec-23 23:27N 38°54' W 084°51'  
Track history (hours):
 
Tides and Currents Weather Stations Pressure Air Temp Water Temp Dewpoint Dewpoint Depression Visibility Wind Speed Wind Dir Waves Ship Positions

Capt. James Anderson

Owner: AEP River Operations LLC, Chesterfield, MO. More information available from US FCC via Universal Licensing System and Coast Guard Vessel Documentation Center.

Last reported at 2013-Dec-24 11:03 UTC. Time now 2014-Oct-30 22:59 UTC.
Position N 39°02' W 084°20'.
Warning: this ship's position is months out of date.

Length 46 m; draft 3.5 m.

Type: Towing. MMSI: 367010580.

Date/timePositionNaut miles runAvg speedWind from/ knotsBaromVisibWave heightAir tempDewpointWater temp
2013-Dec-24 11:03N 39°02' W 084°20'2 4.3
2013-Dec-24 10:33N 39°02' W 084°23'3 3.1
2013-Dec-24 09:33N 39°04' W 084°26'4 3.5
2013-Dec-24 08:32N 39°07' W 084°28'3 3.4
2013-Dec-24 07:32N 39°06' W 084°33'4 3.8
2013-Dec-24 06:33N 39°04' W 084°37'4 4.3
2013-Dec-24 05:32N 39°07' W 084°42'4 3.7
2013-Dec-24 04:33N 39°08' W 084°46'8 3.6
2013-Dec-24 02:23N 39°03' W 084°53'4 3.2
2013-Dec-24 01:13N 38°60' W 084°51'3 3.8
2013-Dec-24 00:31N 38°57' W 084°50'3 3.2
2013-Dec-23 23:27N 38°54' W 084°51'  

Dump ship's entire track history